Find Meteor-2

NORAD ID: 11962 Int'l Des: 1980-073 Owner: GUKOSR/GMS Country: SU operational
LEOCIRCULARPOLAR

实时位置

正在加载3D地球...

关于 Meteor-2

正在加载描述...

即将过境

Passes for default location (London). Set your location on the main map for personalized predictions.

高度历史

Loading altitude history...

两行轨道根数

1 11962U 80073A 26106.23848534 .00000131 00000-0 65584-4 0 9996
2 11962 81.2217 150.4167 0034800 315.7700 44.0690 14.11134545345996
Epoch: Apr 16, 2026 • Age: 9 hours

当前状态

高度 858.5 km
速度 7.43 km/s
星下点 38.91°N, 96.18°E
发射日期 Sep 9, 1980
运行时间 45.5 years
类型 other

技术详情

分类 Payload
质量 1500.00 kg
干质量 1500.00 kg
总质量 1500.00 kg
长度 4.50 m
直径 1.40 m
跨度 4.50 m
形状 Cyl + 2 Pan
制造商 VNIEM
平台类型 Meteor-2
阶段状态 In Orbit
所有者/国家 GUKOSR/GMS/SU

Most Searched